sat.trackr.live / text

‹ back to catalog

STARLINK-35555

NORAD 66425 · 2025-259D

PAYLOAD ACTIVE UNKNOWN

§ Identity

Operator
Country
US
Launch date
2025-11-11
Launch site
AFETR
Launch vehicle
Mass (kg)
RCS (m²)

Purposes: comms

External: N2YO · Heavens-Above · Gunter

§ Orbital elements

Epoch: 2026-09-20T16:35:13.035840Z

Period
94.27 min
Inclination
43.0022°
Eccentricity
0.0001227
Mean motion
15.27597941 rev/d
Perigee alt
482.2 km
Apogee alt
483.8 km
Semi-major
6,861.1 km
B*
4.5469e-4
RAAN
253.1369°
Arg perigee
275.2643°
Mean anomaly
84.8069°
Rev number
4,931

§ Raw data

STARLINK-355551 66425U 25259D   26263.69112310  .00012278  00000+0  45469-3 0  99982 66425  43.0022 253.1369 0001227 275.2643  84.8069 15.27597941 49318

JSON: /api/v1/satellites/66425 · /tle

For live sub-satellite position, see the globe view (requires WebGL).

§ Visibility from observer

Set your observer location to see the next 7 days of passes ≥ 10°. The values pass through the URL so the page stays shareable.

No JS? Fill the form by hand. The geolocation button needs JavaScript.